FOA weather

Foao Airstrip
Foao, Papua, Indonesia

Public forecast

Using degrees Celsius for public forecast. Weather courtesy of forecast.io.

METAR (pilot weather report)

Closest report is Sentani International Airport, 89.9 nm (166.5 km) ENE. Retrieved 2019/07/20 04:30 UTC (0 seconds ago):

WAJJ 200430Z 14014KT 9999 FEW012CB FEW014 33/24 Q1006 NOSIG

TAF (pilot weather forecast)

Forecast is more than 12 hours old.

Closest forecast is Sentani International Airport, 89.9 nm (166.5 km) ENE. Retrieved 2013/03/11 12:00 UTC (6 years ago):

TAF WAJJ 111100Z 1112/1212 29006KT 5000 HZ SCT016 TEMPO 1113/1121 4000 RA FEW014CB BECMG 1200/1202 28012KT 9999 TEMPO 1207/1212 6000 RA FEW014CB